DW6610 Weather Reports


time (UTC)temp
C
wind
direction
speed
KPH
gust
KPH
rain 1hr
cm
rain 24hr
cm
rain mn
cm
humidity
%
barometer
mb
20260506012051 20 84 3.2 11.3 0.00 2.13 2.13 94 1007.8
20260506011616 20 321 3.2 11.3 0.00 2.13 2.13 95 1007.9
20260506011051 20 20 3.2 8.0 0.00 2.13 2.13 95 1008.0
20260506010551 20 77 1.6 6.4 0.00 2.13 2.13 95 1007.9
20260506010052 20 58 1.6 11.3 0.00 2.13 2.13 95 1007.8
20260506005552 20 285 3.2 11.3 0.00 2.13 2.13 94 1007.7
20260506005051 20 9 3.2 12.9 0.00 2.13 2.13 94 1007.5
20260506004602 20 25 3.2 12.9 0.00 2.13 2.13 94 1007.7
20260506004051 20 71 3.2 12.9 0.00 2.13 2.13 94 1007.9
20260506003551 20 88 3.2 8.0 0.00 2.13 2.13 94 1007.7
20260506003053 20 32 3.2 6.4 0.00 2.13 2.13 94 1008.0
20260506002553 20 33 3.2 6.4 0.00 2.13 2.13 94 1008.0
20260506002048 20 70 1.6 8.0 0.00 2.13 2.13 94 1008.2
20260506001556 20 48 1.6 8.0 0.00 2.13 2.13 94 1007.8
20260506001051 20 347 3.2 11.3 0.00 2.13 2.13 94 1007.5
20260506000554 20 41 3.2 11.3 0.00 2.13 2.13 94 1007.6
20260506000118 20 300 4.8 11.3 0.00 2.13 2.13 94 1007.4
20260505235554 20 91 3.2 11.3 0.00 2.13 2.13 94 1007.4
20260505235052 20 95 3.2 11.3 0.00 2.13 2.13 94 1007.6
20260505234554 20 66 3.2 11.3 0.00 2.13 2.13 94 1007.9
20260505234052 20 51 1.6 8.0 0.00 2.13 2.13 94 1007.9
20260505233553 20 311 1.6 11.3 0.00 2.13 2.13 94 1007.9
20260505233057 20 26 3.2 11.3 0.00 2.13 2.13 94 1007.9
20260505232551 20 86 1.6 6.4 0.00 2.13 2.13 94 1007.8
20260505232053 20 72 3.2 8.0 0.00 2.13 2.13 94 1007.9
20260505231604 20 60 1.6 11.3 0.00 2.13 2.13 94 1008.0
20260505231052 20 80 1.6 11.3 0.00 2.13 2.13 94 1008.0
20260505230552 20 83 1.6 6.4 0.00 2.13 2.13 94 1008.0
20260505230106 20 44 3.2 6.4 0.00 2.13 2.13 94 1008.0
20260505225548 20 83 1.6 6.4 0.00 2.13 2.13 94 1008.0
20260505225052 20 78 1.6 8.0 0.00 2.13 2.13 94 1008.0
20260505224557 20 304 3.2 8.0 0.00 2.13 2.13 94 1008.0
20260505224051 19 47 1.6 8.0 0.00 2.13 2.13 94 1008.0
20260505223556 19 27 3.2 8.0 0.00 2.13 2.13 94 1007.9
20260505223055 19 39 3.2 9.7 0.00 2.13 2.13 94 1007.9
20260505222551 19 44 3.2 9.7 0.00 2.13 2.13 95 1007.6
20260505222053 19 32 1.6 11.3 0.00 2.13 2.13 95 1007.7
20260505221559 19 31 3.2 11.3 0.00 2.13 2.13 95 1008.0
20260505221052 18 43 1.6 8.0 0.00 2.13 2.13 96 1008.0
20260505220550 18 316 3.2 8.0 0.00 2.13 2.13 96 1008.1
20260505220059 18 19 3.2 11.3 0.00 2.13 2.13 96 1008.3
20260505215548 18 51 1.6 11.3 0.00 2.13 2.13 96 1008.3
20260505215048 18 86 3.2 8.0 0.00 2.13 2.13 96 1008.3
20260505214553 18 30 3.2 6.4 0.00 2.13 2.13 96 1008.5
20260505214051 18 344 1.6 8.0 0.00 2.13 2.13 96 1008.5
20260505213552 18 56 3.2 8.0 0.00 2.13 2.13 96 1008.6
20260505213057 18 47 1.6 8.0 0.00 2.13 2.13 96 1008.6
20260505212554 18 331 3.2 8.0 0.00 2.13 2.13 96 1008.6
20260505212052 18 81 0.0 4.8 0.00 2.13 2.13 96 1008.6
20260505211610 18 107 1.6 8.0 0.00 2.13 2.13 96 1008.7
20260505211052 18 66 3.2 11.3 0.00 2.13 2.13 96 1008.7
20260505210551 18 11 3.2 11.3 0.00 2.13 2.13 96 1008.7
20260505210058 18 110 4.8 11.3 0.00 2.13 2.13 96 1008.8
20260505205551 18 105 4.8 11.3 0.00 2.13 2.13 96 1008.8
20260505205052 18 299 3.2 12.9 0.00 2.13 2.13 96 1008.8
20260505204604 18 39 4.8 12.9 0.00 2.13 2.13 96 1008.9
20260505204048 18 72 4.8 12.9 0.00 2.13 2.13 96 1008.9
20260505203551 18 356 3.2 11.3 0.00 2.13 2.13 96 1008.8
20260505203103 18 89 3.2 11.3 0.00 2.13 2.13 96 1008.9
20260505202548 18 46 4.8 11.3 0.00 2.13 2.13 96 1008.9
20260505202048 18 34 3.2 11.3 0.00 2.13 2.13 96 1009.0
20260505201600 18 26 4.8 11.3 0.00 2.13 2.13 96 1009.0
20260505201052 18 338 3.2 11.3 0.00 2.13 2.13 96 1009.1
20260505200552 18 65 3.2 11.3 0.00 2.13 2.13 95 1009.0
20260505200055 18 84 4.8 11.3 0.00 2.13 2.13 95 1009.1
20260505195551 18 50 3.2 11.3 0.00 2.13 2.13 95 1009.1
20260505195051 18 63 3.2 12.9 0.00 2.13 2.13 96 1009.1
20260505194617 18 34 4.8 12.9 0.00 2.13 2.13 95 1009.0
20260505194051 18 46 3.2 16.1 0.00 2.13 2.13 96 1009.0
20260505193551 18 83 3.2 16.1 0.00 2.13 2.13 96 1009.1
20260505193106 17 65 4.8 16.1 0.00 2.13 2.13 96 1009.1
20260505192558 17 85 3.2 11.3 0.00 2.13 2.13 96 1009.2
20260505192052 17 88 3.2 12.9 0.00 2.13 2.13 96 1009.3
20260505191606 17 44 4.8 12.9 0.00 2.13 2.13 96 1009.4
20260505191055 17 319 3.2 9.7 0.03 2.13 2.13 97 1009.3
20260505190551 17 42 3.2 9.7 0.05 2.13 2.13 97 1009.4
20260505190056 17 16 3.2 11.3 0.05 2.13 2.13 97 1009.5
20260505185552 17 53 3.2 12.9 0.05 2.13 2.13 97 1009.4
20260505185052 17 89 4.8 14.5 0.08 2.13 2.13 97 1009.6
20260505184554 17 57 4.8 14.5 0.08 2.13 2.13 97 1009.5
20260505184052 17 325 3.2 9.7 0.08 2.13 2.13 97 1009.5
20260505183553 16 100 4.8 11.3 0.08 2.13 2.13 97 1009.5
20260505183055 16 312 6.4 11.3 0.08 2.13 2.13 97 1009.5
20260505182554 16 322 3.2 9.7 0.08 2.13 2.13 97 1009.6
20260505182053 16 68 4.8 9.7 0.08 2.13 2.13 97 1009.7
20260505181554 16 130 3.2 11.3 0.08 2.13 2.13 97 1009.8
20260505181053 16 321 3.2 11.3 0.05 2.11 2.11 97 1009.8
20260505180548 16 39 1.6 11.3 0.03 2.08 2.08 97 1009.9
20260505180100 16 75 3.2 11.3 0.03 2.08 2.08 97 1010.1
20260505175548 16 281 4.8 12.9 0.03 2.08 2.08 97 1010.0
20260505175048 16 55 3.2 12.9 0.00 2.06 2.06 97 1010.1
20260505174555 16 29 4.8 12.9 0.03 2.06 2.06 97 1010.1
20260505174048 16 15 3.2 12.9 0.03 2.06 2.06 97 1010.1
20260505173551 16 238 4.8 12.9 0.03 2.06 2.06 97 1010.0
20260505173112 16 15 3.2 14.5 0.05 2.06 2.06 97 1010.1
20260505172551 16 18 4.8 14.5 0.08 2.06 2.06 97 1010.0
20260505172051 16 193 3.2 12.9 0.15 2.06 2.06 97 1010.0
20260505171623 16 53 3.2 16.1 0.20 2.06 2.06 97 1010.2
20260505171050 16 48 3.2 16.1 0.23 2.06 2.06 97 1010.3
20260505170551 15 58 4.8 16.1 0.28 2.06 2.06 97 1010.3
20260505170053 15 352 3.2 9.7 0.36 2.06 2.06 97 1010.4
20260505165548 15 69 4.8 9.7 0.46 2.06 2.06 97 1010.6
20260505165048 15 46 3.2 8.0 0.53 2.06 2.06 97 1010.7
20260505164558 15 295 3.2 12.9 0.56 2.03 2.03 97 1011.1
20260505164051 15 155 3.2 12.9 0.61 2.03 2.03 97 1011.2
20260505163548 15 70 4.8 16.1 0.66 2.03 2.03 97 1011.2
20260505163053 15 51 4.8 16.1 0.69 2.01 2.01 97 1011.0
20260505162554 15 75 8.0 16.1 0.74 1.98 1.98 97 1011.0
20260505162052 15 83 6.4 19.3 0.74 1.91 1.91 97 1011.0
20260505161615 15 99 4.8 19.3 0.79 1.85 1.85 97 1011.2
20260505161053 15 12 6.4 17.7 0.81 1.83 1.83 97 1011.2
20260505160554 15 334 3.2 17.7 0.81 1.78 1.78 97 1011.2
20260505153053 15 77 3.2 12.9 0.76 1.32 1.32 96 1011.8
20260505152548 15 82 1.6 14.5 0.79 1.24 1.24 96 1011.6
20260505152049 15 58 4.8 14.5 0.76 1.17 1.17 96 1011.6
20260505151553 15 20 4.8 12.9 0.69 1.07 1.07 96 1011.2
20260505151049 15 310 3.2 9.7 0.69 1.02 1.02 96 1011.4
20260505150548 15 91 4.8 9.7 0.64 0.94 0.94 96 1011.5
20260505150111 15 30 3.2 9.7 0.58 0.86 0.86 95 1011.3
20260505140548 15 0 0.0 4.8 0.30 0.30 0.30 91 1012.0
20260505124559 16 319 3.2 9.7 0.00 0.00 0.00 79 1011.4
20260505124052 16 58 3.2 16.1 0.00 0.00 0.00 79 1011.3
20260505123555 16 24 4.8 16.1 0.00 0.00 0.00 79 1011.3
20260505123059 16 353 4.8 12.9 0.00 0.00 0.00 79 1011.2
20260505122552 16 329 3.2 12.9 0.00 0.00 0.00 79 1011.2
20260505122053 16 61 3.2 9.7 0.00 0.00 0.00 79 1011.1
20260505121620 16 38 4.8 11.3 0.00 0.00 0.00 79 1011.1
20260505121052 16 65 3.2 11.3 0.00 0.00 0.00 79 1011.1
20260505120551 16 75 3.2 11.3 0.00 0.00 0.00 79 1011.0
20260505120053 16 77 3.2 9.7 0.00 0.00 0.00 79 1010.9
20260505115551 16 23 3.2 9.7 0.00 0.00 0.00 78 1010.9
20260505115048 16 354 1.6 6.4 0.00 0.00 0.00 78 1010.9
20260505114557 16 13 3.2 8.0 0.00 0.00 0.00 78 1010.8
20260505114049 16 259 3.2 8.0 0.00 0.00 0.00 78 1010.8
20260505113550 16 60 3.2 8.0 0.00 0.00 0.00 78 1010.8
20260505113057 16 84 3.2 6.4 0.00 0.00 0.00 78 1010.5
20260505112549 16 20 1.6 8.0 0.00 0.00 0.00 77 1010.3
20260505112048 16 345 1.6 8.0 0.00 0.00 0.00 77 1010.2
20260505111556 16 68 3.2 8.0 0.00 0.00 0.00 77 1010.0
20260505111055 16 49 3.2 8.0 0.00 0.00 0.00 77 1009.9
20260505110554 16 48 3.2 8.0 0.00 0.00 0.00 77 1010.1
20260505102048 16 31 3.2 8.0 0.00 0.00 0.00 75 1009.8
20260505101557 17 53 1.6 4.8 0.00 0.00 0.00 75 1009.6
20260505101051 17 32 0.0 6.4 0.00 0.00 0.00 75 1009.8
20260505100621 17 0 1.6 9.7 0.00 0.00 0.00 74 1009.8
20260505100128 17 63 1.6 9.7 0.00 0.00 0.00 74 1009.7
20260505095551 17 75 3.2 11.3 0.00 0.00 0.00 74 1009.5
20260505095050 17 107 3.2 12.9 0.00 0.00 0.00 74 1009.4
20260505094551 17 307 1.6 12.9 0.00 0.00 0.00 74 1009.4
20260505094052 17 51 1.6 9.7 0.00 0.00 0.00 73 1009.3
20260505093552 17 22 1.6 11.3 0.00 0.00 0.00 73 1009.5
20260505093053 17 8 3.2 11.3 0.00 0.00 0.00 73 1009.4
20260505092554 17 61 4.8 11.3 0.00 0.00 0.00 73 1009.4
20260505092053 17 67 3.2 11.3 0.00 0.00 0.00 73 1009.2
20260505091616 17 51 4.8 11.3 0.00 0.00 0.00 72 1009.1
20260505091052 17 38 3.2 16.1 0.00 0.00 0.00 72 1009.0
20260505090551 17 84 6.4 16.1 0.00 0.00 0.00 72 1009.0
20260505090100 17 89 3.2 16.1 0.00 0.00 0.00 72 1009.1
20260505085551 17 33 4.8 16.1 0.00 0.00 0.00 72 1009.2
20260505085049 17 41 4.8 16.1 0.00 0.00 0.00 72 1009.1
20260505084550 17 89 3.2 12.9 0.00 0.00 0.00 72 1009.1
20260505084050 17 34 4.8 12.9 0.00 0.00 0.00 72 1009.2
20260505083551 17 24 3.2 11.3 0.00 0.00 0.00 72 1009.3
20260505083054 17 83 4.8 11.3 0.00 0.00 0.00 72 1009.3
20260505082551 17 39 3.2 11.3 0.00 0.00 0.00 72 1009.3
20260505082050 17 288 4.8 9.7 0.00 0.00 0.00 72 1009.4
20260505081557 17 68 3.2 9.7 0.00 0.00 0.00 72 1009.5
20260505081052 17 17 3.2 9.7 0.00 0.00 0.00 72 1009.4
20260505080550 16 85 1.6 8.0 0.00 0.00 0.00 73 1009.5
20260505080054 16 44 3.2 8.0 0.00 0.00 0.00 73 1009.6
20260505075548 16 62 3.2 8.0 0.00 0.00 0.00 73 1009.5
20260505075053 16 34 3.2 8.0 0.00 0.00 0.00 73 1009.6
20260505074553 16 306 3.2 8.0 0.00 0.00 0.00 72 1009.6
20260505074054 16 94 3.2 8.0 0.00 0.00 0.00 72 1009.5
20260505073547 16 4 1.6 11.3 0.00 0.00 0.00 72 1009.7
20260505073100 16 56 1.6 11.3 0.00 0.00 0.00 72 1009.8
20260505072551 16 63 1.6 8.0 0.00 0.00 0.00 72 1010.0
20260505072054 17 26 3.2 8.0 0.00 0.00 0.00 72 1010.0
20260505071552 17 55 1.6 6.4 0.00 0.00 0.00 72 1010.3
20260505071052 17 78 1.6 6.4 0.00 0.00 0.00 72 1010.5
20260505070549 17 34 1.6 8.0 0.00 0.00 0.00 71 1010.6
20260505070057 17 21 1.6 8.0 0.00 0.00 0.00 71 1010.7
20260505065552 17 49 1.6 6.4 0.00 0.00 0.00 71 1010.7
20260505065052 17 15 1.6 6.4 0.00 0.00 0.00 71 1011.0
20260505064602 17 77 0.0 4.8 0.00 0.00 0.00 70 1011.0
20260505064048 17 48 1.6 4.8 0.00 0.00 0.00 70 1011.1
20260505063549 17 63 1.6 6.4 0.00 0.00 0.00 69 1011.1
20260505063101 17 35 1.6 9.7 0.00 0.00 0.00 69 1011.1
20260505062551 17 54 3.2 9.7 0.00 0.00 0.00 68 1011.2
20260505062051 17 12 1.6 6.4 0.00 0.00 0.00 68 1011.2
20260505061552 18 62 1.6 4.8 0.00 0.00 0.00 67 1011.1
20260505061051 18 337 1.6 6.4 0.00 0.00 0.00 67 1011.3
20260505060554 18 84 1.6 6.4 0.00 0.00 0.00 67 1011.3
20260505060059 18 65 3.2 6.4 0.00 0.00 0.00 66 1011.3
20260505055549 18 42 3.2 6.4 0.00 0.00 0.00 66 1011.2
20260505055049 18 52 1.6 6.4 0.00 0.00 0.00 66 1011.2
20260505054620 18 56 1.6 8.0 0.00 0.00 0.00 65 1011.1
20260505054054 18 25 1.6 8.0 0.00 0.00 0.00 65 1011.2
20260505053548 18 77 3.2 8.0 0.00 0.00 0.00 65 1011.1
20260505053100 18 18 3.2 8.0 0.00 0.00 0.00 65 1011.0
20260505052552 18 5 1.6 8.0 0.00 0.00 0.00 65 1011.2
20260505052051 18 9 3.2 8.0 0.00 0.00 0.00 65 1011.2
20260505051555 18 74 1.6 8.0 0.00 0.00 0.00 65 1011.2
20260505051053 18 72 3.2 11.3 0.00 0.00 0.00 65 1011.2
20260505050552 18 53 1.6 11.3 0.00 0.00 0.00 65 1011.2
20260505041605 19 84 1.6 9.7 0.00 0.00 0.00 63 1011.4
20260505041051 19 48 0.0 9.7 0.00 0.00 0.00 62 1011.3
20260505040551 19 304 3.2 9.7 0.00 0.00 0.00 62 1011.3
20260505040052 19 57 3.2 9.7 0.00 0.00 0.00 62 1011.3
20260505035551 20 58 3.2 9.7 0.00 0.00 0.00 62 1011.2
20260505035053 20 122 4.8 11.3 0.00 0.00 0.00 62 1011.1
20260505034553 20 75 3.2 11.3 0.00 0.00 0.00 61 1011.2
20260505034051 20 59 4.8 11.3 0.00 0.00 0.00 61 1011.2
20260505033552 20 20 3.2 8.0 0.00 0.00 0.00 61 1011.1
20260505033053 20 310 1.6 11.3 0.00 0.00 0.00 61 1011.1
20260505032552 20 44 1.6 11.3 0.00 0.00 0.00 61 1011.1
20260505032052 20 60 3.2 11.3 0.00 0.00 0.00 60 1011.0
20260505031553 20 75 3.2 8.0 0.00 0.00 0.00 60 1011.0
20260505031052 20 67 3.2 9.7 0.00 0.00 0.00 60 1011.0
20260505030551 20 271 3.2 9.7 0.00 0.00 0.00 59 1011.0
20260505030103 20 96 3.2 8.0 0.00 0.00 0.00 59 1011.0
20260505025553 20 57 3.2 11.3 0.00 0.00 0.00 59 1011.1
20260505025052 20 269 3.2 11.3 0.00 0.00 0.00 58 1010.9
20260505024601 20 37 3.2 11.3 0.00 0.00 0.00 58 1010.9
20260505024051 20 345 4.8 9.7 0.00 0.00 0.00 58 1010.8
20260505023552 20 49 3.2 9.7 0.00 0.00 0.00 58 1010.9
20260505023104 20 68 4.8 9.7 0.00 0.00 0.00 58 1010.8
20260505022551 20 347 3.2 9.7 0.00 0.00 0.00 57 1010.9
20260505022051 20 24 3.2 9.7 0.00 0.00 0.00 57 1010.7
20260505021556 20 326 3.2 9.7 0.00 0.00 0.00 57 1010.6
20260505021050 21 7 3.2 6.4 0.00 0.00 0.00 56 1010.5
20260505020550 21 52 1.6 6.4 0.00 0.00 0.00 56 1010.6
20260505015552 21 51 1.6 8.0 0.00 0.00 0.00 55 1010.4
20260505015053 21 44 3.2 9.7 0.00 0.00 0.00 55 1010.3
20260505014552 21 11 1.6 11.3 0.00 0.00 0.00 55 1010.3
20260505014055 21 21 3.2 11.3 0.00 0.00 0.00 54 1010.3
20260505013552 21 99 4.8 11.3 0.00 0.00 0.00 54 1010.3
20260505013053 21 88 1.6 8.0 0.00 0.00 0.00 54 1010.4
20260505012551 21 89 1.6 8.0 0.00 0.00 0.00 53 1010.3